This is the latest recevied weather packets stored in our database for station/object N2XP. If no packets are shown the sender has not sent any weather packets the latest 10 day(s).
| Time | Temp. | Humidity | Pressure | Rain* | Wind** | Luminosity | Snow |
|---|---|---|---|---|---|---|---|
| 1777730419 | 8.89° C | 73% | 1010.7 hPa | 0 mm | - | - | - |
| 1777729519 | 8.89° C | 77% | 1010.8 hPa | 0 mm | - | - | - |
| 1777728617 | 8.33° C | 86% | 1010.8 hPa | 0 mm | - | - | - |
| 1777727720 | 7.78° C | 89% | 1010.9 hPa | 0 mm | - | - | - |
| 1777726817 | 7.22° C | 87% | 1011 hPa | 0 mm | - | - | - |
| 1777725913 | 7.78° C | 86% | 1011 hPa | 0 mm | - | - | - |
| 1777725011 | 8.33° C | 87% | 1010.6 hPa | 0 mm | - | - | - |
| 1777724113 | 8.33° C | 89% | 1010.3 hPa | 0 mm | - | - | - |
| 1777723209 | 7.78° C | 90% | 1010.1 hPa | 0 mm | - | - | - |
| 1777722308 | 8.33° C | 92% | 1010.2 hPa | 0 mm | - | - | - |
| 1777721408 | 8.33° C | 94% | 1010.3 hPa | 0 mm | - | - | - |
| 1777720507 | 7.78° C | 95% | 1010.3 hPa | 0 mm | - | - | - |
| 1777719605 | 7.22° C | 95% | 1010 hPa | 0 mm | - | - | - |
| 1777718705 | 7.22° C | 94% | 1010 hPa | 0 mm | - | - | - |
| 1777717805 | 6.67° C | 94% | 1009.8 hPa | 0 mm | - | - | - |
| 1777716903 | 6.67° C | 93% | 1009.7 hPa | 0 mm | - | - | - |
| 1777716002 | 6.67° C | 93% | 1009.5 hPa | 0 mm | - | - | - |
| 1777715188 | 7.22° C | 92% | 1009.3 hPa | 0 mm | - | - | - |
| 1777714264 | 7.78° C | 92% | 1009.2 hPa | 0.25 mm | - | - | - |
| 1777713355 | 7.78° C | 92% | 1009.2 hPa | 0.25 mm | - | - | - |
| 1777712453 | 7.78° C | 92% | 1009.1 hPa | 0.25 mm | - | - | - |
| 1777711549 | 8.33° C | 90% | 1009.4 hPa | 0.25 mm | - | - | - |
| 1777710650 | 8.33° C | 90% | 1009.7 hPa | 0 mm | - | - | - |
| 1777709763 | 8.33° C | 89% | 1009.7 hPa | 0 mm | - | - | - |
| 1777708852 | 8.33° C | 88% | 1009.5 hPa | 0 mm | - | - | - |
* Rain latest hour (hover to see other rain measurements)
** Current wind speed in m/s (hover to see current wind gust speed)